Regional Weather Roundup
Issued by NWS

Home | Current Version | Previous Version | Graphics & Text | Print | Product List | Glossary On
Versions: 1 2 3 4 5 6 7 8 9 10 11 12 13 14 15 16 17 18 19 20 21 22 23 24 25 26 27 28 29 30 31 32 33 34 35 36 37 38 39 40 41 42 43 44 45 46 47 48 49 50
000
ASUS45 KABQ 300010
RWRNM
NEW MEXICO REGIONAL WEATHER ROUNDUP
NATIONAL WEATHER SERVICE ALBUQUERQUE NM
600 PM MDT THU SEP 29 2016

NOTE: "FAIR" MEANS FEW OR NO CLOUDS BELOW 12,000 FEET AGL WITH NO
       SIGNIFICANT WEATHER OR OBSTRUCTIONS TO VISION.

      THIS PRODUCT IS RELEASED AS TWO VERSIONS.  ONE VERSION NEAR
      THE TOP OF THE HOUR CONTAINING PRELIMINARY DATA FROM ALBUQUERQUE
      AND OTHER STATIONS.  A FINAL VERSION WITH ADDITIONAL DATA IS
      ISSUED ABOUT 10 MINUTES AFTER THE HOUR.

NMZ501-503-504-510>518-300100-
NORTHWEST PLATEAU/NORTHCENTRAL MOUNTAINS

CITY           SKY/WX    TMP DP  RH WIND       PRES   REMARKS
FARMINGTON     LGT RAIN  58  54  86 E6        30.41R
6HR MIN TEMP:  57; 6HR MAX TEMP:  62; 6HR PCP:  0.08;

LOS ALAMOS     FAIR      69  33  26 SE10G16   30.44S
SANTA FE       FAIR      73  37  27 SE15      30.38R
6HR MIN TEMP:  73; 6HR MAX TEMP:  78;

TAOS           FAIR      72  32  23 SW10      30.42S
ANGEL FIRE     FAIR      62  36  37 SE13      30.51S

$$
NMZ402-403-502-505>509-300100-
WESTCENTRAL MOUNTAINS/SOUTHWEST MOUNTAINS

CITY           SKY/WX    TMP DP  RH WIND       PRES   REMARKS
GALLUP         CLOUDY    56  54  93 E10       30.43F
6HR MIN TEMP:  55; 6HR MAX TEMP:  59; 6HR PCP:  0.34;

SILVER CITY    PTSUNNY   75  52  44 SE15      30.29S

$$
NMZ407-409-411-412-300100-
SOUTHERN DESERTS

CITY           SKY/WX    TMP DP  RH WIND       PRES   REMARKS
DEMING         FAIR      81  54  39 SE10      30.21F
6HR MIN TEMP:  79; 6HR MAX TEMP:  84;

LAS CRUCES     FAIR      81  43  26 E10       30.25F
HOLLOMAN AFB   FAIR      83  39  21 S17       30.22S
ALAMOGORDO     FAIR      82  39  21 S17G24    30.24S
T OR C         PTSUNNY   80  49  33 S13       30.25F
6HR MIN TEMP:  78; 6HR MAX TEMP:  82;


$$
NMZ519>523-300100-
CENTRAL VALLEYS/CENTRAL HIGHLANDS

CITY           SKY/WX    TMP DP  RH WIND       PRES   REMARKS
ALBUQUERQUE    LGT RAIN  68  57  68 W39G53    30.34R
6HR MIN TEMP:  68; 6HR MAX TEMP:  83; 6HR PCP: TRACE;

DOUBLE EAGLE   LGT RAIN  66  52  59 W32G52    30.41R BLWGDUST
MORIARTY ARPT  FAIR      72  30  21 SE14      30.41R
6HR MIN TEMP:  72; 6HR MAX TEMP:  78;

CLINES CORNERS FAIR      66  32  28 SE14      30.45S
6HR MIN TEMP:  66; 6HR MAX TEMP:  72;

BELEN          CLOUDY    69  51  52 W22       30.33R
6HR MIN TEMP:  69; 6HR MAX TEMP:  84;

SOCORRO        FAIR      79  44  29 E6        30.27S THUNDER
6HR MIN TEMP:  78; 6HR MAX TEMP:  83;


$$
NMZ524>526-539-540-300100-
SOUTHCENTRAL MOUNTAINS

CITY           SKY/WX    TMP DP  RH WIND       PRES   REMARKS
RUIDOSO        FAIR      64  37  36 SE13      30.47R

$$
NMZ527>531-300100-
NORTHEAST HIGHLANDS/NORTHEAST PLAINS

CITY           SKY/WX    TMP DP  RH WIND       PRES   REMARKS
LAS VEGAS      FAIR      68  28  22 S15G22    30.44S
6HR MIN TEMP:  67; 6HR MAX TEMP:  73;

RATON          FAIR      71  36  27 S17       30.37S
6HR MIN TEMP:  70; 6HR MAX TEMP:  75;

CLAYTON        FAIR      72  43  35 S10       30.33F
6HR MIN TEMP:  69; 6HR MAX TEMP:  78;


$$
NMZ532>537-300100-
EASTCENTRAL PLAINS

CITY           SKY/WX    TMP DP  RH WIND       PRES   REMARKS
TUCUMCARI      FAIR      81  39  22 S15       30.28F
6HR MIN TEMP:  76; 6HR MAX TEMP:  85;

CANNON AFB     NOT AVBL
CLOVIS AIRPORT FAIR      72  46  40 SE10      30.34S

$$
NMZ028-029-538-300100-
SOUTHEAST PLAINS

CITY           SKY/WX    TMP DP  RH WIND       PRES   REMARKS
ROSWELL        FAIR      79  42  26 S13       30.29S
6HR MIN TEMP:  76; 6HR MAX TEMP:  82;

ARTESIA        FAIR      77  50  38 S8        30.29S
CARLSBAD       FAIR      77  48  35 S9        30.27S
6HR MIN TEMP:  75; 6HR MAX TEMP:  79; 6HR PCP: TRACE;

HOBBS          CLEAR     73  48  40 E12       30.33S


$$



USA.gov is the U.S. government's official web portal to all federal, state and local government web resources and services.